Location: Cactus School
(34.5700°N, 118.0931°W)
Time: 10:12:04
(UTC-07:00)

Vanguard 2 - All Passes

Search period start: 23 April 2024 00:00
Search period end: 03 May 2024 00:00
Orbit: 552 x 2916 km, 32.9° (Epoch: 23 April)

Date Brightness Start Highest point End Pass type
(mag) Time Alt. Az. Time Alt. Az. Time Alt. Az.
23 Apr - 00:40:30 10° SW 00:52:15 55° SSE 01:08:49 10° E visible
23 Apr - 02:48:59 10° WSW 03:03:58 82° S 03:21:57 10° E visible
23 Apr - 04:59:51 10° W 05:17:12 81° S 05:33:34 10° ESE visible
23 Apr - 07:12:18 10° W 07:29:18 55° SSW 07:42:36 10° SE daylight
23 Apr - 09:28:03 10° W 09:38:37 21° SW 09:47:04 10° S daylight
23 Apr - 22:49:23 10° S 22:57:36 27° SE 23:08:56 10° E visible
24 Apr - 00:54:49 10° SW 01:06:48 63° SSE 01:23:51 10° E visible
24 Apr - 03:03:46 10° W 03:18:54 84° S 03:36:53 10° E visible
24 Apr - 05:14:45 10° W 05:32:05 77° SSW 05:48:18 10° ESE visible
24 Apr - 07:27:24 10° W 07:43:44 47° SW 07:56:41 10° SSE daylight
24 Apr - 09:45:08 10° W 09:52:39 15° SW 09:59:06 10° SSW daylight
24 Apr - 23:02:55 10° SSW 23:11:43 34° SE 23:24:32 10° E visible
25 Apr - 01:09:17 10° WSW 01:21:26 71° SSE 01:38:49 10° E visible
25 Apr - 03:18:35 10° W 03:33:52 85° S 03:51:48 10° E visible
25 Apr - 05:29:38 10° W 05:46:52 71° SSW 06:02:53 10° ESE visible
25 Apr - 07:42:39 10° W 07:58:03 39° SW 08:10:29 10° SSE daylight
25 Apr - 23:16:46 10° SSW 23:25:55 43° SE 23:39:49 10° E visible
26 Apr - 01:23:51 10° WSW 01:36:11 77° SSE 01:53:47 10° E visible
26 Apr - 03:33:24 10° W 03:48:48 84° S 04:06:41 10° E visible
26 Apr - 05:44:32 10° W 06:01:33 64° SSW 06:17:19 10° SE daylight
26 Apr - 07:58:10 10° W 08:12:16 31° SW 08:23:57 10° SSE daylight
26 Apr - 21:27:45 10° SSE 21:32:31 16° SE 21:38:29 10° E night (unlit)
26 Apr - 23:30:51 10° SW 23:40:15 52° SSE 23:54:55 10° E visible
27 Apr - 01:38:30 10° WSW 01:50:59 81° S 02:08:44 10° E visible
27 Apr - 03:48:12 10° W 04:03:42 81° S 04:21:30 10° ESE visible
27 Apr - 05:59:28 10° W 06:16:08 56° SSW 06:31:34 10° SE daylight
27 Apr - 08:14:05 10° W 08:26:24 24° SW 08:36:57 10° S daylight
27 Apr - 21:40:26 10° S 21:46:30 22° SE 21:54:51 10° E visible
27 Apr - 23:45:07 10° SW 23:54:42 60° SSE 00:09:56 10° E visible
28 Apr - 01:53:11 10° W 02:05:50 84° S 02:23:40 10° E visible
28 Apr - 04:03:00 10° W 04:18:33 76° SSW 04:36:12 10° ESE visible
28 Apr - 06:14:28 10° W 06:30:36 48° SSW 06:45:36 10° SE daylight
28 Apr - 08:30:48 10° W 08:40:30 18° SW 08:49:10 10° SSW daylight
28 Apr - 21:53:50 10° SSW 22:00:33 29° SE 22:10:30 10° E visible
28 Apr - 23:59:32 10° WSW 00:09:15 69° SSE 00:24:53 10° E visible
29 Apr - 02:07:55 10° W 02:20:42 84° S 02:38:35 10° E visible
29 Apr - 04:17:48 10° W 04:33:19 70° SSW 04:50:46 10° ESE visible
29 Apr - 06:29:38 10° W 06:44:59 40° SW 06:59:20 10° SSE daylight
29 Apr - 08:49:31 10° WSW 08:54:37 12° SW 08:59:26 10° SSW daylight
29 Apr - 22:07:36 10° SSW 22:14:42 37° SE 22:25:47 10° E visible
30 Apr - 00:14:02 10° WSW 00:23:54 75° SSE 00:39:49 10° E visible
30 Apr - 02:22:37 10° W 02:35:33 83° S 02:53:28 10° E visible
30 Apr - 04:32:36 10° W 04:47:59 63° SSW 05:05:10 10° SE visible
30 Apr - 06:45:02 10° W 06:59:16 32° SW 07:12:44 10° SSE daylight
30 Apr - 20:20:37 10° SE 20:21:57 10° SE 20:23:23 10° ESE visible
30 Apr - 22:21:38 10° SW 22:28:57 47° SSE 22:40:52 10° E visible
01 May - 00:28:36 10° WSW 00:38:37 80° S 00:54:44 10° E visible
01 May - 02:37:19 10° W 02:50:23 80° S 03:08:17 10° ESE visible
01 May - 04:47:26 10° W 05:02:35 55° SSW 05:19:22 10° SE visible
01 May - 07:00:49 10° W 07:13:31 25° SW 07:25:39 10° S daylight
01 May - 20:31:56 10° S 20:35:55 16° SE 20:41:01 10° E visible
01 May - 22:35:50 10° SW 22:43:19 56° SSE 22:55:50 10° E visible
02 May - 00:43:13 10° W 00:53:23 83° S 01:09:39 10° E visible
02 May - 02:52:02 10° W 03:05:10 75° SSW 03:22:58 10° ESE visible
02 May - 05:02:21 10° W 05:17:06 47° SSW 05:33:19 10° SE visible
02 May - 07:17:19 10° W 07:27:45 19° SW 07:37:51 10° S daylight
02 May - 20:45:02 10° S 20:49:56 23° SE 20:56:50 10° E visible
02 May - 22:50:11 10° WSW 22:57:48 65° SSE 23:10:44 10° E visible
